When you browse on this site, cookies collect data to enhance your experience and personalize the content and advertising you see.
Visit our Privacy Policy to learn more. By continuing to use the site, you agree to this use of cookies and data.
  • In Austria
  • List of Countries
  • For 7 days
  • Water Temperature
  • Satellite Maps
  • Weather Map
  • News
  • Weather Widgets
  • user-avatar
    Login

    Hourly Weather Rivne

    Today, 21 February, Thursday

    Time Temperature Precipitation Wind Pressure Humidity
    00:00 +1°C° 0 mm 5 mps 740 mmHg 80%
    01:00 +1°C° 0 mm 4 mps 740 mmHg 81%
    02:00 +1°C° 0 mm 4 mps 740 mmHg 83%
    03:00 0°C° 0 mm 4 mps 740 mmHg 85%
    04:00 0°C° 0 mm 4 mps 740 mmHg 87%
    05:00 -1°C° 0 mm 4 mps 741 mmHg 89%
    06:00 -1°C° 0 mm 4 mps 741 mmHg 89%
    07:00 -1°C° 0 mm 4 mps 741 mmHg 88%
    08:00 -1°C° 0 mm 4 mps 741 mmHg 87%
    09:00 +1°C° 0 mm 5 mps 741 mmHg 83%
    10:00 +2°C° 0 mm 5 mps 741 mmHg 78%
    11:00 +3°C° 0 mm 6 mps 741 mmHg 73%
    12:00 +4°C° 0 mm 6 mps 741 mmHg 71%
    13:00 +4°C° 0 mm 6 mps 741 mmHg 69%
    14:00 +5°C° 0 mm 6 mps 741 mmHg 67%
    15:00 +5°C° 0 mm 6 mps 740 mmHg 69%
    16:00 +5°C° 0 mm 5 mps 740 mmHg 70%
    17:00 +5°C° 0 mm 5 mps 740 mmHg 72%
    18:00 +5°C° 0 mm 5 mps 740 mmHg 72%
    19:00 +3°C° 0 mm 5 mps 740 mmHg 72%
    20:00 +3°C° 0 mm 5 mps 739 mmHg 73%
    21:00 +3°C° 0.2 mm 5 mps 739 mmHg 73%
    22:00 +3°C° 0.2 mm 5 mps 739 mmHg 74%
    23:00 +3°C° 0.2 mm 5 mps 739 mmHg 75%

    Tomorrow, 22 February, Friday

    Time Temperature Precipitation Wind Pressure Humidity
    00:00 +3°C° 0.4 mm 5 mps 738 mmHg 76%
    01:00 +3°C° 0.4 mm 5 mps 738 mmHg 78%
    02:00 +3°C° 0.4 mm 5 mps 738 mmHg 80%
    03:00 +2°C° 0.3 mm 5 mps 737 mmHg 81%
    04:00 +2°C° 0.3 mm 5 mps 737 mmHg 82%
    05:00 +3°C° 0.3 mm 4 mps 736 mmHg 84%
    06:00 +3°C° 0.8 mm 4 mps 736 mmHg 86%
    07:00 +1°C° 0.8 mm 4 mps 737 mmHg 88%
    08:00 +1°C° 0.8 mm 4 mps 737 mmHg 91%
    09:00 -1°C° 0.7 mm 4 mps 738 mmHg 89%
    10:00 -2°C° 0.7 mm 5 mps 739 mmHg 87%
    11:00 -5°C° 0.7 mm 5 mps 740 mmHg 85%
    12:00 -5°C° 0.1 mm 5 mps 741 mmHg 80%
    13:00 -5°C° 0.1 mm 5 mps 742 mmHg 75%
    14:00 -5°C° 0.1 mm 6 mps 743 mmHg 70%
    15:00 -5°C° 0 mm 6 mps 744 mmHg 68%
    16:00 -6°C° 0 mm 6 mps 744 mmHg 67%
    17:00 -6°C° 0 mm 6 mps 745 mmHg 66%
    18:00 -7°C° 0 mm 5 mps 745 mmHg 67%
    19:00 -8°C° 0 mm 5 mps 746 mmHg 68%
    20:00 -8°C° 0 mm 4 mps 747 mmHg 70%
    21:00 -8°C° 0 mm 4 mps 748 mmHg 67%
    22:00 -9°C° 0 mm 4 mps 748 mmHg 65%
    23:00 -9°C° 0 mm 4 mps 749 mmHg 62%

    Day after tomorrow, 23 February, Saturday

    Time Temperature Precipitation Wind Pressure Humidity
    00:00 -9°C° 0 mm 4 mps 749 mmHg 62%
    01:00 -9°C° 0 mm 4 mps 750 mmHg 61%
    02:00 -9°C° 0 mm 4 mps 750 mmHg 60%
    03:00 -9°C° 0 mm 4 mps 750 mmHg 60%
    04:00 -9°C° 0 mm 4 mps 750 mmHg 60%
    05:00 -9°C° 0 mm 4 mps 750 mmHg 60%
    06:00 -9°C° 0 mm 4 mps 751 mmHg 61%
    07:00 -10°C° 0 mm 4 mps 751 mmHg 62%
    08:00 -9°C° 0 mm 3 mps 751 mmHg 63%
    09:00 -9°C° 0 mm 4 mps 751 mmHg 60%
    10:00 -9°C° 0 mm 4 mps 752 mmHg 57%
    11:00 -8°C° 0 mm 4 mps 752 mmHg 54%
    12:00 -8°C° 0 mm 4 mps 752 mmHg 52%
    13:00 -7°C° 0 mm 4 mps 752 mmHg 50%
    14:00 -5°C° 0 mm 4 mps 752 mmHg 48%
    15:00 -7°C° 0 mm 4 mps 752 mmHg 49%
    16:00 -6°C° 0 mm 3 mps 752 mmHg 51%
    17:00 -6°C° 0 mm 3 mps 751 mmHg 52%
    18:00 -6°C° 0 mm 3 mps 752 mmHg 55%
    19:00 -6°C° 0 mm 2 mps 752 mmHg 59%
    20:00 -6°C° 0 mm 2 mps 752 mmHg 63%
    21:00 -6°C° 0 mm 2 mps 752 mmHg 64%
    22:00 -6°C° 0 mm 1 mps 752 mmHg 65%
    23:00 -6°C° 0 mm 1 mps 752 mmHg 66%

    24 February, Sunday

    Time Temperature Precipitation Wind Pressure Humidity
    00:00 -6°C° 0 mm 1 mps 752 mmHg 67%
    01:00 -6°C° 0 mm 1 mps 752 mmHg 68%
    02:00 -6°C° 0 mm 1 mps 752 mmHg 69%
    03:00 -7°C° 0 mm 1 mps 752 mmHg 69%
    04:00 -7°C° 0 mm 1 mps 751 mmHg 70%
    05:00 -8°C° 0 mm 2 mps 751 mmHg 71%
    06:00 -8°C° 0 mm 2 mps 751 mmHg 70%
    07:00 -8°C° 0 mm 2 mps 751 mmHg 69%
    08:00 -7°C° 0 mm 2 mps 751 mmHg 68%
    09:00 -6°C° 0 mm 2 mps 751 mmHg 60%
    10:00 -5°C° 0 mm 2 mps 751 mmHg 53%
    11:00 -4°C° 0 mm 3 mps 751 mmHg 45%
    12:00 -2°C° 0 mm 3 mps 750 mmHg 42%
    13:00 -2°C° 0 mm 3 mps 750 mmHg 38%
    14:00 -1°C° 0 mm 3 mps 749 mmHg 35%
    15:00 -1°C° 0 mm 3 mps 749 mmHg 38%
    16:00 -1°C° 0 mm 2 mps 748 mmHg 40%
    17:00 -1°C° 0 mm 2 mps 748 mmHg 43%
    18:00 -1°C° 0 mm 2 mps 748 mmHg 46%
    19:00 -1°C° 0 mm 2 mps 747 mmHg 48%
    20:00 -2°C° 0 mm 2 mps 747 mmHg 51%
    21:00 -2°C° 0 mm 3 mps 747 mmHg 52%
    22:00 -2°C° 0 mm 3 mps 747 mmHg 52%
    23:00 -2°C° 0 mm 3 mps 746 mmHg 53%

    25 February, Monday

    Time Temperature Precipitation Wind Pressure Humidity
    00:00 -3°C° 0.1 mm 4 mps 746 mmHg 63%
    01:00 -3°C° 0.1 mm 4 mps 745 mmHg 74%
    02:00 -3°C° 0.1 mm 4 mps 745 mmHg 84%
    03:00 -3°C° 0.8 mm 4 mps 745 mmHg 87%
    04:00 -3°C° 0.8 mm 4 mps 744 mmHg 90%
    05:00 -3°C° 0.8 mm 4 mps 744 mmHg 93%
    06:00 -3°C° 0.1 mm 4 mps 744 mmHg 92%
    07:00 -2°C° 0.1 mm 5 mps 743 mmHg 92%
    08:00 -2°C° 0.1 mm 5 mps 743 mmHg 91%
    09:00 -2°C° 0.2 mm 5 mps 743 mmHg 91%
    10:00 -2°C° 0.2 mm 6 mps 743 mmHg 92%
    11:00 -2°C° 0.2 mm 6 mps 743 mmHg 93%
    12:00 -1°C° 0.1 mm 6 mps 744 mmHg 91%
    13:00 -1°C° 0.1 mm 6 mps 744 mmHg 89%
    14:00 -1°C° 0.1 mm 6 mps 744 mmHg 87%
    15:00 -1°C° 0.1 mm 6 mps 744 mmHg 87%
    16:00 -1°C° 0.1 mm 5 mps 745 mmHg 86%
    17:00 -1°C° 0.1 mm 5 mps 745 mmHg 86%
    18:00 -1°C° 0 mm 5 mps 745 mmHg 86%
    19:00 -2°C° 0 mm 5 mps 746 mmHg 86%
    20:00 -2°C° 0 mm 4 mps 746 mmHg 86%
    21:00 -2°C° 0 mm 4 mps 746 mmHg 87%
    22:00 -3°C° 0 mm 4 mps 746 mmHg 87%
    23:00 -3°C° 0 mm 4 mps 746 mmHg 88%

    26 February, Tuesday

    Time Temperature Precipitation Wind Pressure Humidity
    00:00 -3°C° 0 mm 4 mps 746 mmHg 89%
    01:00 -4°C° 0 mm 4 mps 745 mmHg 90%
    02:00 -4°C° 0 mm 4 mps 745 mmHg 91%
    03:00 -4°C° 0 mm 4 mps 745 mmHg 91%
    04:00 -4°C° 0 mm 4 mps 744 mmHg 92%
    05:00 -4°C° 0 mm 4 mps 744 mmHg 92%
    06:00 -4°C° 0 mm 4 mps 743 mmHg 89%
    07:00 -4°C° 0 mm 5 mps 743 mmHg 86%
    08:00 -4°C° 0 mm 5 mps 743 mmHg 84%
    09:00 -3°C° 0 mm 6 mps 742 mmHg 81%
    10:00 -2°C° 0 mm 6 mps 741 mmHg 78%
    11:00 0°C° 0 mm 7 mps 741 mmHg 76%
    12:00 0°C° 0 mm 7 mps 740 mmHg 76%
    13:00 +2°C° 0 mm 7 mps 740 mmHg 76%
    14:00 +2°C° 0 mm 6 mps 740 mmHg 76%
    15:00 +2°C° 0 mm 6 mps 739 mmHg 79%
    16:00 +2°C° 0 mm 5 mps 739 mmHg 82%
    17:00 +1°C° 0 mm 5 mps 738 mmHg 84%
    18:00 +1°C° 0 mm 5 mps 738 mmHg 85%
    19:00 +1°C° 0 mm 5 mps 738 mmHg 86%
    20:00 +1°C° 0 mm 6 mps 738 mmHg 87%
    21:00 +1°C° 0.2 mm 6 mps 737 mmHg 87%
    22:00 0°C° 0.2 mm 7 mps 736 mmHg 87%
    23:00 +1°C° 0.2 mm 8 mps 736 mmHg 87%
    Show more